Flag for Germany Weather past 2 weeks in Herne, North Rhine-Westphalia, Germany

Now
73 °F

Sunny.


Feels Like: 77 °F
Forecast: 61 / 78 °F
Wind: 5 mph from Northeast

Location: Dortmund / Wickede

Current Time: Jul 23, 2014 at 10:16:26 PM

Latest Report: Jul 23, 2014 at 9:50 PM


Visibility: 10 mi

Pressure: 30.04 "Hg

Humidity: 57%

Dew point: 57 °F

Location of HerneLocation

Historic Weather in Herne — Graph

°F

Herne temperature yesterday

Maximum temperature yesterday: 77 °F (at 4:20 PM)
Minimum temperature yesterday: 64 °F (at 5:50 AM)
Average temperature yesterday: 71 °F

Past Weeks' High & Low Weather Summary

 TemperatureHumidityPressure
High90 °F (Jul 19, 1:20 PM)100% (Jul 10, 5:20 AM)30.18 "Hg (Jul 10, 5:20 AM)
Low54 °F (Jul 8, 10:20 PM)22% (Jul 19, 2:50 PM)29.65 "Hg (Jul 9, 2:50 PM)
Average70 °F67%29.95 "Hg
* Reported Jul 8 8:20 PM — Jul 23 8:50 PM, Herne, Weather by CustomWeather, © 2014

Note: Actual official high and low records may vary slightly from our data, if they occured in-between our weather recording intervals... More about our weather records

Advertising

Herne weather history for previous 24 hours

 ConditionsComfort  
Time TempWeatherWind HumidityBarometerVisibility
8:50 PM
Jul 23
77 °FPassing clouds.6 mph51%30.01 "HgN/A
8:20 PM77 °FPassing clouds.7 mph51%30.01 "HgN/A
7:50 PM79 °FPassing clouds.8 mph48%30.01 "HgN/A
7:20 PM79 °FSunny.12 mph48%30.01 "Hg10 mi
6:50 PM81 °FPassing clouds.8 mph45%30.01 "HgN/A
6:20 PM81 °FPassing clouds.12 mph48%30.01 "HgN/A
5:50 PM81 °FPassing clouds.13 mph48%30.01 "HgN/A
5:20 PM81 °FPassing clouds.9 mph45%30.04 "HgN/A
4:50 PM81 °FPassing clouds.9 mph48%30.04 "HgN/A
4:20 PM81 °FPassing clouds.12 mph48%30.04 "HgN/A
3:50 PM81 °FPassing clouds.12 mph45%30.04 "HgN/A
3:20 PM81 °FPassing clouds.10 mph51%30.04 "HgN/A
2:50 PM81 °FPassing clouds.9 mph51%30.07 "HgN/A
1:20 PM79 °FPassing clouds.9 mph54%30.07 "HgN/A
12:50 PM77 °FPassing clouds.8 mph57%30.07 "HgN/A
12:20 PM77 °FPassing clouds.9 mph57%30.09 "HgN/A
11:50 AM75 °FPassing clouds.8 mph61%30.09 "HgN/A
7:20 AM64 °FPassing clouds.5 mph83%30.09 "HgN/A
6:50 AM64 °FSunny.3 mph88%30.09 "Hg10 mi
6:20 AM63 °FClear.5 mph88%30.09 "Hg10 mi
5:50 AM63 °FClear.5 mph88%30.09 "Hg10 mi
5:20 AM64 °FClear.5 mph83%30.09 "Hg10 mi
Weather by CustomWeather, © 2014

See weather overviewHow to use our weather pages